Flag for Guadeloupe Weather past 2 weeks in Pointe-à-Pitre, Guadeloupe

Now
73 °F

Partly sunny.


Feels Like: 70 °F
Forecast: 69 / 87 °F
Wind: No wind

Location: Le Raizet - Guadeloupe

Current Time: May 27, 2015 at 7:11:53 AM

Latest Report: May 27, 2015 at 6:30 AM


Visibility: N/A

Pressure: 29.95 "Hg

Humidity: 94%

Dew point: 72 °F

Location of Pointe-à-PitreLocation

Historic Weather in Pointe-à-Pitre — Graph

°F

Pointe-à-Pitre temperature yesterday

Maximum temperature yesterday: 86 °F (at 10:30 AM)
Minimum temperature yesterday: 72 °F (at 4:30 AM)
Average temperature yesterday: 78 °F

Past Weeks' High & Low Weather Summary

 TemperatureHumidityPressure
High90 °F (May 20, 1:30 PM)94% (May 12, 6:30 AM)30.12 "Hg (May 12, 6:30 AM)
Low70 °F (May 27, 3:30 AM)40% (May 16, 1:00 PM)29.92 "Hg (May 27, 2:30 AM)
Average80 °F73%30.02 "Hg
* Reported May 12 6:00 AM — May 27 6:00 AM, Pointe-à-Pitre, Weather by CustomWeather, © 2015

Note: Actual official high and low records may vary slightly from our data, if they occured in-between our weather recording intervals... More about our weather records

Advertising

Pointe-à-Pitre weather history for previous 24 hours

 ConditionsComfort  
Time TempWeatherWind HumidityBarometerVisibility
6:00 AM
Wed, May 27
73 °FPartly sunny.No wind94%29.95 "HgN/A
5:30 AM72 °FLight rain. Overcast.2 mph94%29.95 "HgN/A
5:00 AM72 °FPartly cloudy.No wind94%29.92 "HgN/A
4:30 AM70 °FPassing clouds.1 mph94%29.92 "HgN/A
4:00 AM70 °FPassing clouds.2 mph94%29.92 "HgN/A
3:30 AM70 °FPassing clouds.No wind94%29.92 "HgN/A
3:00 AM72 °FPassing clouds.2 mph88%29.92 "HgN/A
2:30 AM72 °FClear.1 mph88%29.92 "HgN/A
2:00 AM72 °FClear.3 mph88%29.95 "HgN/A
1:30 AM72 °FPassing clouds.No wind88%29.95 "HgN/A
1:00 AM73 °FPartly cloudy.2 mph83%29.95 "HgN/A
12:30 AM73 °FClear.2 mph83%29.98 "HgN/A
12:00 AM72 °FPassing clouds.2 mph94%29.98 "HgN/A
11:30 PM
Tue, May 26
73 °FPassing clouds.1 mph89%29.98 "HgN/A
11:00 PM75 °FClear.No wind78%29.98 "HgN/A
10:30 PM75 °FClear.No wind78%29.98 "HgN/A
10:00 PM75 °FClear.3 mph78%29.98 "HgN/A
9:30 PM75 °FClear.3 mph78%30.01 "HgN/A
9:00 PM75 °FPassing clouds.5 mph83%29.98 "HgN/A
8:30 PM77 °FPassing clouds.7 mph79%29.98 "HgN/A
8:00 PM77 °FPassing clouds.7 mph79%29.98 "HgN/A
7:30 PM77 °FPassing clouds.7 mph79%29.98 "HgN/A
7:00 PM77 °FOvercast.7 mph79%29.98 "HgN/A
6:30 PM79 °FBroken clouds.6 mph74%29.98 "HgN/A
6:00 PM79 °FPartly sunny.7 mph79%29.98 "HgN/A
5:30 PM79 °FBroken clouds.10 mph79%29.95 "HgN/A
5:00 PM81 °FMostly cloudy.12 mph70%29.95 "Hg1 mi
4:30 PM82 °FMostly cloudy.7 mph62%29.95 "HgN/A
4:00 PM82 °FOvercast.2 mph62%29.95 "HgN/A
3:30 PM81 °FOvercast.5 mph70%29.95 "HgN/A
3:00 PM81 °FLight rain. Cloudy.6 mph70%29.95 "HgN/A
2:30 PM82 °FMore clouds than sun.8 mph62%29.95 "HgN/A
2:00 PM86 °FPartly sunny.12 mph49%29.95 "HgN/A
1:30 PM86 °FPassing clouds.14 mph49%29.95 "HgN/A
1:00 PM86 °FPassing clouds.13 mph55%29.95 "HgN/A
12:30 PM86 °FPassing clouds.12 mph49%29.98 "HgN/A
12:00 PM86 °FPartly sunny.12 mph49%29.98 "HgN/A
11:30 AM86 °FPartly sunny.9 mph46%29.98 "HgN/A
11:00 AM86 °FBroken clouds.12 mph49%30.01 "HgN/A
10:30 AM86 °FPartly sunny.9 mph49%30.01 "HgN/A
10:00 AM84 °FPartly sunny.10 mph55%30.01 "HgN/A
9:30 AM84 °FPartly sunny.10 mph58%30.01 "HgN/A
9:00 AM82 °FPartly sunny.9 mph58%30.01 "HgN/A
8:30 AM82 °FPartly sunny.7 mph62%30.01 "HgN/A
8:00 AM81 °FPartly sunny.10 mph66%30.01 "HgN/A
7:30 AM81 °FClear.5 mph66%30.01 "HgN/A
7:00 AM77 °FClear.1 mph79%30.01 "HgN/A
Weather by CustomWeather, © 2015

See weather overviewHow to use our weather pages